TimeCST,TemperatureF,Dew PointF,Humidity,Sea Level PressureIn,VisibilityMPH,Wind Direction,Wind SpeedMPH,Gust SpeedMPH,PrecipitationIn,Events,Conditions,WindDirDegrees,DateUTC
12:15 AM,37.4,12.2,36,30.30,10.0,WSW,6.9,-,N/A,,Clear,250,2012-12-05 06:15:00
12:35 AM,37.4,12.2,36,30.30,10.0,WSW,5.8,-,N/A,,Clear,250,2012-12-05 06:35:00
12:55 AM,37.4,12.2,36,30.29,10.0,WSW,6.9,-,N/A,,Clear,250,2012-12-05 06:55:00
1:15 AM,37.4,12.2,36,30.29,10.0,WSW,3.5,-,N/A,,Clear,250,2012-12-05 07:15:00
1:55 AM,37.4,12.2,36,30.29,10.0,SW,3.5,-,N/A,,Clear,220,2012-12-05 07:55:00
2:15 AM,37.4,12.2,36,30.30,10.0,Calm,Calm,-,N/A,,Clear,0,2012-12-05 08:15:00
2:35 AM,35.6,12.2,38,30.29,10.0,WSW,3.5,-,N/A,,Clear,240,2012-12-05 08:35:00
2:55 AM,37.4,12.2,36,30.29,10.0,Calm,Calm,-,N/A,,Clear,0,2012-12-05 08:55:00
3:15 AM,37.4,12.2,36,30.28,10.0,Calm,Calm,-,N/A,,Clear,0,2012-12-05 09:15:00
3:35 AM,37.4,14.0,38,30.28,10.0,Calm,Calm,-,N/A,,Clear,0,2012-12-05 09:35:00
3:55 AM,35.6,14.0,41,30.28,10.0,Calm,Calm,-,N/A,,Clear,0,2012-12-05 09:55:00
4:15 AM,35.6,14.0,41,30.27,10.0,Calm,Calm,-,N/A,,Clear,0,2012-12-05 10:15:00
4:35 AM,35.6,14.0,41,30.27,10.0,Calm,Calm,-,N/A,,Clear,0,2012-12-05 10:35:00
4:55 AM,33.8,14.0,44,30.26,10.0,Calm,Calm,-,N/A,,Clear,0,2012-12-05 10:55:00
5:15 AM,32.0,14.0,48,30.26,10.0,Calm,Calm,-,N/A,,Clear,0,2012-12-05 11:15:00
5:35 AM,32.0,14.0,48,30.26,10.0,Calm,Calm,-,N/A,,Clear,0,2012-12-05 11:35:00
5:55 AM,35.6,14.0,41,30.26,10.0,Calm,Calm,-,N/A,,Clear,0,2012-12-05 11:55:00
6:15 AM,32.0,14.0,48,30.27,10.0,NNE,3.5,-,N/A,,Clear,20,2012-12-05 12:15:00
6:35 AM,32.0,14.0,48,30.27,10.0,North,4.6,-,N/A,,Clear,10,2012-12-05 12:35:00
6:55 AM,32.0,14.0,48,30.27,10.0,Calm,Calm,-,N/A,,Clear,0,2012-12-05 12:55:00
8:35 AM,46.4,19.4,34,30.25,10.0,SSW,5.8,-,N/A,,Clear,210,2012-12-05 14:35:00
8:55 AM,50.0,19.4,30,30.25,10.0,SSW,9.2,-,N/A,,Clear,210,2012-12-05 14:55:00
9:15 AM,50.0,19.4,30,30.24,10.0,SSW,15.0,19.6,N/A,,Clear,200,2012-12-05 15:15:00
9:35 AM,51.8,19.4,28,30.24,10.0,SSW,10.4,-,N/A,,Clear,210,2012-12-05 15:35:00
9:55 AM,53.6,19.4,26,30.23,10.0,SSW,16.1,21.9,N/A,,Clear,210,2012-12-05 15:55:00
10:15 AM,53.6,19.4,26,30.22,10.0,SSW,18.4,23.0,N/A,,Clear,210,2012-12-05 16:15:00
10:35 AM,55.4,19.4,25,30.22,10.0,SSW,17.3,26.5,N/A,,Clear,200,2012-12-05 16:35:00
10:55 AM,57.2,17.6,21,30.21,10.0,South,17.3,-,N/A,,Clear,190,2012-12-05 16:55:00
11:15 AM,57.2,17.6,21,30.20,10.0,South,18.4,-,N/A,,Clear,190,2012-12-05 17:15:00
11:35 AM,59.0,17.6,20,30.19,10.0,South,15.0,21.9,N/A,,Clear,190,2012-12-05 17:35:00
11:55 AM,60.8,15.8,17,30.18,10.0,SSW,15.0,21.9,N/A,,Clear,200,2012-12-05 17:55:00
12:15 PM,60.8,15.8,17,30.16,10.0,SSW,17.3,21.9,N/A,,Clear,210,2012-12-05 18:15:00
12:35 PM,60.8,15.8,17,30.13,10.0,South,15.0,-,N/A,,Clear,190,2012-12-05 18:35:00
12:55 PM,60.8,15.8,17,30.12,10.0,SSW,19.6,24.2,N/A,,Clear,200,2012-12-05 18:55:00
1:15 PM,62.6,15.8,16,30.10,10.0,SSW,17.3,25.3,N/A,,Clear,210,2012-12-05 19:15:00
1:35 PM,62.6,17.6,18,30.09,10.0,South,17.3,21.9,N/A,,Clear,180,2012-12-05 19:35:00
1:55 PM,64.4,17.6,16,30.07,10.0,South,16.1,21.9,N/A,,Clear,190,2012-12-05 19:55:00
2:15 PM,62.6,17.6,18,30.05,10.0,South,19.6,25.3,N/A,,Clear,190,2012-12-05 20:15:00
2:35 PM,62.6,15.8,16,30.04,10.0,South,17.3,24.2,N/A,,Clear,190,2012-12-05 20:35:00
2:55 PM,64.4,17.6,16,30.03,10.0,South,15.0,24.2,N/A,,Clear,190,2012-12-05 20:55:00
3:15 PM,64.4,17.6,16,30.02,10.0,SSW,16.1,25.3,N/A,,Clear,200,2012-12-05 21:15:00
3:35 PM,62.6,17.6,18,30.02,10.0,South,18.4,23.0,N/A,,Clear,190,2012-12-05 21:35:00
3:55 PM,62.6,17.6,18,30.02,10.0,SSW,15.0,20.7,N/A,,Clear,200,2012-12-05 21:55:00
4:15 PM,62.6,17.6,18,30.02,10.0,South,16.1,-,N/A,,Clear,190,2012-12-05 22:15:00
4:35 PM,60.8,19.4,20,30.01,10.0,South,11.5,-,N/A,,Clear,190,2012-12-05 22:35:00
4:55 PM,60.8,17.6,19,30.00,10.0,South,11.5,16.1,N/A,,Clear,170,2012-12-05 22:55:00
5:15 PM,59.0,17.6,20,29.99,10.0,South,11.5,-,N/A,,Clear,170,2012-12-05 23:15:00
5:35 PM,55.4,17.6,23,29.99,10.0,SSE,12.7,-,N/A,,Clear,160,2012-12-05 23:35:00
5:55 PM,55.4,17.6,23,29.99,10.0,SSE,10.4,-,N/A,,Clear,160,2012-12-05 23:55:00
6:15 PM,53.6,17.6,24,29.98,10.0,SSE,10.4,-,N/A,,Clear,160,2012-12-06 00:15:00
6:35 PM,53.6,17.6,24,29.98,10.0,SSE,10.4,-,N/A,,Clear,160,2012-12-06 00:35:00
6:55 PM,53.6,17.6,24,29.97,10.0,SSE,12.7,-,N/A,,Clear,150,2012-12-06 00:55:00
7:15 PM,51.8,19.4,28,29.96,10.0,SSE,11.5,17.3,N/A,,Clear,150,2012-12-06 01:15:00
7:35 PM,51.8,19.4,28,29.96,10.0,SSE,13.8,18.4,N/A,,Clear,150,2012-12-06 01:35:00
7:55 PM,51.8,19.4,28,29.96,10.0,SSE,11.5,18.4,N/A,,Clear,160,2012-12-06 01:55:00
8:15 PM,51.8,19.4,28,29.95,10.0,SSE,11.5,17.3,N/A,,Clear,160,2012-12-06 02:15:00
8:35 PM,51.8,19.4,28,29.96,10.0,South,12.7,19.6,N/A,,Clear,170,2012-12-06 02:35:00
8:55 PM,51.8,19.4,28,29.95,10.0,South,17.3,26.5,N/A,,Clear,180,2012-12-06 02:55:00
9:15 PM,51.8,19.4,28,29.94,10.0,South,17.3,23.0,N/A,,Clear,180,2012-12-06 03:15:00
9:35 PM,51.8,17.6,26,29.93,10.0,South,16.1,24.2,N/A,,Clear,180,2012-12-06 03:35:00
9:55 PM,51.8,19.4,28,29.91,10.0,South,18.4,28.8,N/A,,Clear,190,2012-12-06 03:55:00
10:15 PM,51.8,19.4,28,29.91,10.0,South,21.9,26.5,N/A,,Clear,190,2012-12-06 04:15:00
10:35 PM,51.8,19.4,28,29.89,10.0,South,21.9,27.6,N/A,,Clear,180,2012-12-06 04:35:00
10:55 PM,51.8,19.4,28,29.88,10.0,South,21.9,31.1,N/A,,Clear,180,2012-12-06 04:55:00
11:15 PM,51.8,21.2,30,29.88,10.0,South,24.2,31.1,N/A,,Clear,180,2012-12-06 05:15:00
11:35 PM,51.8,19.4,28,29.87,10.0,South,26.5,35.7,N/A,,Clear,180,2012-12-06 05:35:00
11:55 PM,51.8,21.2,30,29.87,10.0,South,27.6,33.4,N/A,,Clear,180,2012-12-06 05:55:00